Flag for Argentina Weather past 2 weeks in Tucumán, Tucumán, Argentina

Now
45 °F

Clear.


Feels Like: 40 °F
Forecast: 38 / 73 °F
Wind: 9 mph from Northwest

Location: Tucuman Aerodrome

Current Time: Aug 28, 2014 at 8:45:16 AM

Latest Report: Aug 28, 2014 at 8:00 AM


Visibility: 6 mi

Pressure: 30.09 "Hg

Humidity: 71%

Dew point: 36 °F

Location of TucumánLocation

Historic Weather in Tucumán — Graph

°F

Tucumán temperature yesterday

Maximum temperature yesterday: 72 °F (at 4:00 PM)
Minimum temperature yesterday: 41 °F (at 7:00 AM)
Average temperature yesterday: 56 °F

Past Weeks' High & Low Weather Summary

 TemperatureHumidityPressure
High99 °F (Aug 23, 4:00 PM)82% (Aug 18, 4:00 AM)30.57 "Hg (Aug 18, 4:00 AM)
Low39 °F (Aug 14, 8:00 AM)24% (Aug 23, 2:00 PM)29.45 "Hg (Aug 23, 4:00 PM)
Average65 °F55%30.02 "Hg
* Reported Aug 13 7:00 AM — Aug 28 7:00 AM, Tucumán, Weather by CustomWeather, © 2014

Note: Actual official high and low records may vary slightly from our data, if they occured in-between our weather recording intervals... More about our weather records

Advertising

Tucumán weather history for previous 24 hours

 ConditionsComfort  
Time TempWeatherWind HumidityBarometerVisibility
7:00 AM
Aug 28
45 °FSunny.12 mph76%30.09 "Hg10 mi
6:00 AM46 °FClear.9 mph76%30.07 "Hg10 mi
5:00 AM46 °FClear.9 mph76%30.04 "Hg10 mi
4:00 AM46 °FClear.12 mph76%30.07 "Hg10 mi
3:00 AM46 °FClear.9 mph76%30.07 "Hg10 mi
2:00 AM48 °FClear.7 mph71%30.07 "Hg10 mi
1:00 AM50 °FClear.9 mph67%30.09 "Hg10 mi
12:00 AM50 °FClear.9 mph71%30.09 "Hg10 mi
11:00 PM
Aug 27
54 °FClear.5 mph63%30.09 "Hg3 mi
10:00 PM54 °FClear.5 mph63%30.07 "Hg3 mi
9:00 PM55 °FClear.5 mph59%30.07 "Hg3 mi
8:00 PM59 °FClear.9 mph48%30.01 "Hg4 mi
7:00 PM66 °FClear.9 mph35%30.01 "Hg4 mi
6:00 PM70 °FClear.14 mph31%29.98 "Hg4 mi
5:00 PM72 °FClear.12 mph31%29.95 "Hg4 mi
4:00 PM72 °FClear.5 mph33%29.98 "Hg4 mi
3:00 PM70 °FClear.No wind33%29.98 "Hg4 mi
2:00 PM68 °FClear.5 mph38%30.04 "Hg4 mi
1:00 PM64 °FMild.No wind40%30.07 "Hg4 mi
12:00 PM61 °FClear.No wind45%30.12 "Hg4 mi
11:00 AM59 °FClear.No wind48%30.15 "Hg4 mi
10:00 AM55 °FClear.5 mph47%30.15 "Hg4 mi
9:00 AM46 °FClear.6 mph62%30.15 "Hg4 mi
8:00 AM43 °FClear.7 mph71%30.15 "Hg4 mi
Weather by CustomWeather, © 2014

See weather overviewHow to use our weather pages